Regional Weather Roundup
Issued by NWS

Home | Current Version | Previous Version | Text Only | Print | Product List | Glossary On
Versions: 1 2 3 4 5 6 7 8 9 10 11 12 13 14 15 16 17 18 19 20 21 22 23 24 25 26 27 28 29 30 31 32 33 34 35 36 37 38 39 40 41 42 43 44 45 46 47 48 49 50
000
ASUS43 KTOP 232308
RWRKS

WEATHER ROUNDUP FOR KANSAS
NATIONAL WEATHER SERVICE GOODLAND KS
600 PM CDT MON OCT 23 2017

NOTE:  "FAIR" INDICATES FEW OR NO CLOUDS BELOW 12,000 FEET WITH NO
SIGNIFICANT WEATHER AND/OR OBSTRUCTIONS TO VISIBILITY.

KSZ001>006-013>018-027>032-041>047-240000-
NORTHWEST KANSAS

CITY           SKY/WX    TMP DP  RH WIND       PRES   REMARKS
GOODLAND       CLEAR     57  17  21 N24G39    30.33R
HAYS           CLEAR     64  18  17 N20G28    30.22R
HILL CITY      CLEAR     63  18  17 N23G40    30.25R
RUSSELL        CLEAR     64  21  19 NW23G32   30.19R
$$

KSZ061>065-074>080-084>089-240000-
SOUTHWEST KANSAS

CITY           SKY/WX    TMP DP  RH WIND       PRES   REMARKS
DODGE CITY     CLOUDY    62  22  21 N18G31    30.26R
ELKHART          N/A     61  23  23 N13         N/A
GARDEN CITY    PTCLDY    62  16  16 N23G31    30.30R
GREAT BEND     CLEAR     64  23  21 NW18G28   30.21R
LIBERAL        CLEAR     63  22  20 N25G33    30.30R
PRATT          CLEAR     63  21  19 N23       30.21S
$$

KSZ066>073-081>083-090>101-240000-
SOUTHEAST KANSAS

CITY           SKY/WX    TMP DP  RH WIND       PRES   REMARKS
CHANUTE        CLEAR     64  35  34 NW10      30.06S
COFFEYVILLE    PTCLDY    66  34  30 NW17G29   30.07R
HUTCHINSON     CLEAR     65  25  22 N22G32    30.16R
MEDICINE LODGE   N/A     65  23  20 N16G30    30.19S
NEWTON         CLEAR     63  28  26 N21G31    30.14R
PARSONS        PTCLDY    64  33  31 N13       30.09R
WICHITA INTL   PTCLDY    65  30  27 N17       30.15R
WICHITA JABRA  CLEAR     64  28  25 NW21G30   30.14R
WICHITA MCCONL PTCLDY    65  27  24 N18G29    30.14R
WINFIELD       CLEAR     65  33  30 NW17      30.15R
$$

KSZ007>012-019>026-033>040-048>060-102>105-240000-
NORTHEAST KANSAS

CITY           SKY/WX    TMP DP  RH WIND       PRES   REMARKS
CONCORDIA      CLEAR     63  24  22 NW29G41   30.14R
EMPORIA        PTCLDY    63  31  30 NW14G26   30.09R
LAWRENCE       PTCLDY    63  32  31 NW26G37   30.02R
MANHATTAN      PTCLDY    64  29  26 NW9G16    30.10R
MARYSVILLE     PTCLDY    61  28  29 NW31G37   30.08R
OLATHE IND     PTCLDY    62  34  35 NW17G29   30.02R
OLATHE EXE     CLEAR     62  32  32 NW16G25   30.00S
SALINA         PTCLDY    66  26  22 NW23G35   30.14S
TOPEKA BILLARD CLEAR     64  30  27 NW28G35   30.04R
TOPEKA FORBES  PTCLDY    65  32  29 NW22G29   30.04R
$$




USA.gov is the U.S. government's official web portal to all federal, state and local government web resources and services.